Change the Weather History Date:

Tuesday, January 8, 2013

  Actual Average (KRUG) Record (KRUG)
Temperature  
Mean Temperature 22 °F -  
Max Temperature 35 °F 12 °F 42 °F (1958)
Min Temperature 8 °F -8 °F -30 °F (1977)
Degree Days  
Heating Degree Days 44    
Moisture  
Dew Point 21 °F    
Average Humidity 82    
Maximum Humidity 100    
Minimum Humidity 69    
Precipitation  
Precipitation 0.00 in - - ()
Sea Level Pressure  
Sea Level Pressure 29.66 in    
Wind  
Wind Speed 11 mph (SW)    
Max Wind Speed 34 mph    
Max Gust Speed 45 mph    
Visibility 10 miles    
Events Snow    
Averages and records for this station are not official NWS values.
T = Trace of Precipitation, MM = Missing Value Source: NWS Daily Summary

Daily Weather History Graph

Daily Weather History Graph

Search for Another Location

Airport or City:

Trip Planner

Search our weather history database for the weather conditions in past years. The results will help you decide how hot, cold, wet, or windy it might be!

Date:

Astronomy

Jan. 08, 2013 Rise Set
Actual Time 8:27 AM CST 5:06 PM CST
Civil Twilight 7:51 AM CST 5:41 PM CST
Nautical Twilight 7:12 AM CST 6:20 PM CST
Astronomical Twilight 6:35 AM CST 6:57 PM CST
Moon 5:01 AM CST (1/8) 2:10 PM CST (1/8)
Length of Visible Light 9h 49m
Length of Day
8h 38m
Waning Crescent, 13% of the Moon is Illuminated
Jan 8
Waning Crescent
Jan 11
New
Jan 18
First Quarter
Jan 26
Full
Feb 3
Last Quarter

Hourly Weather History & Observations

Time (CST) Temp. Windchill Dew Point Humidity Pressure Visibility Wind Dir Wind Speed Gust Speed Precip Events Conditions
12:15 AM 8.6 °F -2.6 °F 6.8 °F 92% 29.75 in 10.0 mi SSE 6.9 mph - N/A   Clear
12:35 AM 8.6 °F -1.3 °F 6.8 °F 92% 29.75 in 10.0 mi South 5.8 mph - N/A   Clear
12:55 AM 8.6 °F 0.1 °F 6.8 °F 92% 29.74 in 10.0 mi South 4.6 mph - N/A   Clear
1:15 AM 8.6 °F -3.7 °F 8.6 °F 100% 29.74 in 10.0 mi South 8.1 mph - N/A   Clear
1:35 AM 12.2 °F 1.7 °F 10.4 °F 92% 29.73 in 10.0 mi South 6.9 mph - N/A   Clear
1:55 AM 12.2 °F 2.9 °F 10.4 °F 92% 29.73 in 10.0 mi South 5.8 mph - N/A   Clear
2:15 AM 10.4 °F 0.8 °F 10.4 °F 100% 29.72 in 10.0 mi South 5.8 mph - N/A   Clear
2:35 AM 12.2 °F 2.9 °F 10.4 °F 92% 29.72 in 10.0 mi South 5.8 mph - N/A   Clear
2:55 AM 14.0 °F 2.9 °F 12.2 °F 93% 29.71 in 10.0 mi South 8.1 mph - N/A   Clear
3:15 AM 15.8 °F 5.1 °F 14.0 °F 93% 29.70 in 10.0 mi South 8.1 mph - N/A   Clear
3:35 AM 15.8 °F 6.1 °F 14.0 °F 93% 29.69 in 10.0 mi South 6.9 mph - N/A   Clear
3:55 AM 10.4 °F 4.0 °F 8.6 °F 92% 29.68 in 10.0 mi SE 3.5 mph - N/A   Clear
4:15 AM 12.2 °F 0.7 °F 10.4 °F 92% 29.68 in 10.0 mi South 8.1 mph - N/A   Clear
4:35 AM 15.8 °F 8.6 °F 14.0 °F 93% 29.67 in 10.0 mi SE 4.6 mph - N/A   Clear
4:55 AM 10.4 °F -1.5 °F 8.6 °F 92% 29.65 in 10.0 mi ESE 8.1 mph - N/A   Scattered Clouds
5:15 AM 14.0 °F 3.9 °F 10.4 °F 86% 29.64 in 10.0 mi SSE 6.9 mph - N/A   Overcast
5:35 AM 17.6 °F 9.3 °F 15.8 °F 93% 29.63 in 10.0 mi SSE 5.8 mph - N/A   Mostly Cloudy
5:55 AM 19.4 °F 10.4 °F 17.6 °F 93% 29.62 in 10.0 mi SSE 6.9 mph - N/A   Partly Cloudy
6:15 AM 23.0 °F - 19.4 °F 86% 29.62 in 10.0 mi Calm Calm - N/A   Clear
6:35 AM 24.8 °F 17.9 °F 21.2 °F 86% 29.60 in 10.0 mi SSE 5.8 mph - N/A   Clear
6:55 AM 26.6 °F 17.5 °F 21.2 °F 80% 29.59 in 10.0 mi SSE 9.2 mph - N/A   Clear
7:15 AM 26.6 °F 19.1 °F 21.2 °F 80% 29.60 in 10.0 mi South 6.9 mph - N/A   Partly Cloudy
7:35 AM 28.4 °F 17.5 °F 23.0 °F 80% 29.60 in 10.0 mi SSW 13.8 mph - N/A   Scattered Clouds
7:55 AM 28.4 °F 18.5 °F 23.0 °F 80% 29.59 in 10.0 mi SSW 11.5 mph - N/A   Mostly Cloudy
8:15 AM 28.4 °F 18.0 °F 23.0 °F 80% 29.58 in 10.0 mi SSW 12.7 mph - N/A   Overcast
8:55 AM 30.2 °F 20.2 °F 24.8 °F 80% 29.58 in 3.0 mi SSW 12.7 mph 19.6 mph N/A   Overcast
9:15 AM 28.4 °F 18.0 °F 26.6 °F 93% 29.57 in 2.0 mi South 12.7 mph - N/A Snow Light Snow
9:35 AM 30.2 °F 20.8 °F 28.4 °F 93% 29.57 in 10.0 mi SSW 11.5 mph 18.4 mph N/A   Overcast
9:55 AM 32.0 °F 22.5 °F 30.2 °F 93% 29.56 in 5.0 mi SSW 12.7 mph 20.7 mph N/A   Overcast
10:15 AM 32.0 °F 22.1 °F 30.2 °F 93% 29.57 in 9.0 mi SSW 13.8 mph 21.9 mph N/A   Overcast
10:35 AM 30.2 °F 19.3 °F 28.4 °F 93% 29.57 in 10.0 mi SW 15.0 mph 19.6 mph N/A   Mostly Cloudy
10:55 AM 30.2 °F 18.5 °F 28.4 °F 93% 29.57 in 10.0 mi SW 17.3 mph - N/A   Partly Cloudy
11:15 AM 30.2 °F 18.5 °F 28.4 °F 93% 29.57 in 10.0 mi SW 17.3 mph - N/A   Clear
11:55 AM 32.0 °F 21.2 °F 28.4 °F 87% 29.57 in 10.0 mi WSW 16.1 mph - N/A   Clear
12:15 PM 32.0 °F 20.5 °F 28.4 °F 87% 29.58 in 10.0 mi West 18.4 mph 27.6 mph N/A   Scattered Clouds
12:55 PM 33.8 °F 23.9 °F 28.4 °F 81% 29.58 in 10.0 mi West 15.0 mph 23.0 mph N/A   Partly Cloudy
1:15 PM 33.8 °F 22.8 °F 28.4 °F 81% 29.58 in 10.0 mi WNW 18.4 mph 27.6 mph N/A   Mostly Cloudy
1:55 PM 35.6 °F 24.0 °F 28.4 °F 75% 29.58 in 10.0 mi WNW 23.0 mph 28.8 mph N/A   Overcast
2:15 PM 35.6 °F 24.8 °F 28.4 °F 75% 29.58 in 10.0 mi WNW 19.6 mph 25.3 mph N/A   Mostly Cloudy
2:35 PM 35.6 °F 25.2 °F 28.4 °F 75% 29.59 in 10.0 mi West 18.4 mph - N/A   Clear
2:55 PM 35.6 °F 25.9 °F 28.4 °F 75% 29.60 in 10.0 mi West 16.1 mph 19.6 mph N/A   Clear
3:15 PM 35.6 °F 25.5 °F 28.4 °F 75% 29.61 in 10.0 mi West 17.3 mph 24.2 mph N/A   Clear
3:35 PM 35.6 °F 25.5 °F 26.6 °F 70% 29.62 in 10.0 mi West 17.3 mph 23.0 mph N/A   Clear
3:55 PM 35.6 °F 24.5 °F 26.6 °F 70% 29.63 in 10.0 mi WNW 20.7 mph 26.5 mph N/A   Clear
4:15 PM 35.6 °F 24.5 °F 26.6 °F 70% 29.64 in 10.0 mi West 20.7 mph 26.5 mph N/A   Clear
4:35 PM 33.8 °F 23.2 °F 24.8 °F 70% 29.65 in 10.0 mi West 17.3 mph 26.5 mph N/A   Clear
4:55 PM 32.0 °F 19.8 °F 24.8 °F 75% 29.66 in 10.0 mi West 20.7 mph 29.9 mph N/A   Clear
5:15 PM 32.0 °F 20.8 °F 24.8 °F 75% 29.67 in 10.0 mi West 17.3 mph 25.3 mph N/A   Clear
5:35 PM 32.0 °F 21.6 °F 24.8 °F 75% 29.68 in 10.0 mi West 15.0 mph 23.0 mph N/A   Clear
5:55 PM 32.0 °F 21.6 °F 23.0 °F 69% 29.69 in 10.0 mi West 15.0 mph - N/A   Clear
6:15 PM 32.0 °F 21.6 °F 23.0 °F 69% 29.69 in 10.0 mi West 15.0 mph 20.7 mph N/A   Clear
6:35 PM 32.0 °F 22.1 °F 23.0 °F 69% 29.70 in 10.0 mi West 13.8 mph - N/A   Clear
6:55 PM 32.0 °F 21.6 °F 24.8 °F 75% 29.69 in 10.0 mi West 15.0 mph - N/A   Clear
7:15 PM 32.0 °F 20.5 °F 23.0 °F 69% 29.69 in 10.0 mi West 18.4 mph 25.3 mph N/A   Clear
7:35 PM 32.0 °F 21.2 °F 23.0 °F 69% 29.70 in 10.0 mi West 16.1 mph 23.0 mph N/A   Clear
7:55 PM 32.0 °F 20.8 °F 24.8 °F 75% 29.69 in 10.0 mi West 17.3 mph - N/A   Mostly Cloudy
8:15 PM 32.0 °F 20.5 °F 23.0 °F 69% 29.70 in 10.0 mi West 18.4 mph 29.9 mph N/A   Scattered Clouds
8:35 PM 32.0 °F 19.8 °F 23.0 °F 69% 29.70 in 10.0 mi West 20.7 mph 27.6 mph N/A   Mostly Cloudy
8:55 PM 32.0 °F 18.6 °F 23.0 °F 69% 29.70 in 10.0 mi WNW 25.3 mph 36.8 mph N/A   Mostly Cloudy
9:35 PM 32.0 °F 16.7 °F 23.0 °F 69% 29.72 in 10.0 mi West 34.5 mph 44.9 mph N/A   Overcast
9:55 PM 30.2 °F 15.4 °F 23.0 °F 75% 29.74 in 10.0 mi WNW 28.8 mph 40.3 mph N/A   Overcast
10:15 PM 28.4 °F 13.0 °F 23.0 °F 80% 29.75 in 10.0 mi WNW 28.8 mph 44.9 mph N/A   Overcast
10:35 PM 28.4 °F 11.8 °F 21.2 °F 74% 29.76 in 10.0 mi WNW 34.5 mph 43.7 mph N/A   Overcast
10:55 PM 26.6 °F 10.0 °F 21.2 °F 80% 29.77 in 10.0 mi WNW 31.1 mph 38.0 mph N/A   Mostly Cloudy
11:15 PM 26.6 °F 10.6 °F 19.4 °F 74% 29.78 in 10.0 mi WNW 28.8 mph 39.1 mph N/A   Mostly Cloudy
11:55 PM 24.8 °F 9.0 °F 19.4 °F 80% 29.82 in 10.0 mi WNW 25.3 mph 32.2 mph N/A   Clear